Location: Llanfihangel-Ystrad
(52.1833°N, 4.1667°W)
Time: 18:59:00
(UTC+00:00)

Cosmos 2322 Rocket - Pass Details

Date: 17 February 2020
Orbit: 833 x 851 km, 71.0° (Epoch: 05 April)

Event Time Altitude Azimuth Distance (km) Brightness Sun altitude
Exits shadow 05:38:43 - 325° (NW) 2,656 4.5 -17.5°
Reaches altitude 10° 05:39:52 10° 335° (NNW) 2,490 4.4 -17.4°
Maximum altitude 05:41:45 12° 354° (N) 2,382 4.5 -17.1°
Drops below altitude 10° 05:43:38 10° 14° (NNE) 2,491 4.8 -16.8°
Sets 05:48:08 0° 47° (NE) 3,426 6.1 -16.1°
